Location: Aufkirchen
(47.9603°N, 11.3653°E)
Time: 06:55:13
(UTC+01:00)

Transit 2A - Pass Details

Date: 28 November 2020
Orbit: 599 x 960 km, 66.7° (Epoch: 25 January)

Event Time Altitude Azimuth Distance (km) Brightness Sun altitude
Rises 20:26:22 0° 273° (W) 3,594 10.3 -39.6°
Reaches altitude 10° 20:29:54 10° 292° (WNW) 2,608 9.4 -40.2°
Enters shadow 20:33:17 18° 326° (NW) 2,064 8.5 -40.7°
Maximum altitude 20:33:53 18° 333° (NNW) 2,041 - -40.8°
Drops below altitude 10° 20:37:43 10° 15° (NNE) 2,471 - -41.4°
Sets 20:40:57 0° 35° (NE) 3,333 - -42.0°
